Date String (YYYY-MM-DD hh:mm:ss) UTC,Instrument flags,Ambient pressure (hPa),Sample flow (lpm),Bypass flow (lpm),Sample temperature (°C),Ambient temperature (°C),ASC tube jacket temperature (°C),LED temperature (°C),Box temperature (°C),Sample RH (%),Span deviation,Mass concentration (μg/m³),Mass concentration (μg/m³),Mass concentration (μg/m³)
DateTimeUTC,F1_M11,P_M11,Q1_M11,Q2_M11,T1_M11,T2_M11,T3_M11,T4_M11,T5_M11,U1_M11,ZSPAN_M11,X0_M11,X2_M11,X1_M11
2022-03-29 05:00:00,,0812.9,5.01,0.00,29.7,28.8,00.0,38.7,31.5,06.6,0000.0,0007.26,0002.97,0001.47
2022-03-29 05:01:00,,0813.0,4.99,0.00,29.7,28.8,00.0,38.7,31.5,06.6,0000.0,0008.10,0003.01,0001.48
2022-03-29 05:02:00,,0812.9,5.02,0.00,29.7,28.8,00.0,38.7,31.5,06.6,0000.0,0008.86,0003.01,0001.48
2022-03-29 05:03:00,,0812.8,4.99,0.00,29.7,28.8,00.0,38.7,31.5,06.5,0000.0,0008.68,0002.97,0001.49
2022-03-29 05:04:00,,0812.8,5.00,0.00,29.7,28.8,00.0,38.7,31.5,06.5,0000.0,0009.12,0002.92,0001.49
2022-03-29 05:05:00,,0812.8,5.00,0.00,29.7,28.8,00.0,38.7,31.5,06.4,0000.0,0009.45,0002.90,0001.48
2022-03-29 05:06:00,,0812.8,4.98,0.00,29.7,28.8,00.0,38.7,31.5,06.4,0000.0,0009.97,0002.90,0001.48
2022-03-29 05:07:00,,0812.8,5.02,0.00,29.7,28.8,00.0,38.7,31.5,06.5,0000.0,0010.61,0002.82,0001.47
2022-03-29 05:08:00,,0812.9,4.98,0.00,29.7,28.9,00.0,38.7,31.5,06.4,0000.0,0010.73,0002.73,0001.46
2022-03-29 05:09:00,,0812.9,5.00,0.00,29.7,28.9,00.0,38.7,31.5,06.4,0000.0,0011.11,0002.68,0001.46
2022-03-29 05:10:00,,0812.9,4.99,0.00,29.7,28.9,00.0,38.7,31.5,06.4,0000.0,0011.36,0002.69,0001.45
2022-03-29 05:11:00,,0813.0,5.00,0.00,29.7,28.8,00.0,38.7,31.5,06.4,0000.0,0011.52,0002.69,0001.46
2022-03-29 05:12:00,,0812.9,5.02,0.00,29.7,28.8,00.0,38.7,31.5,06.4,0000.0,0010.57,0002.67,0001.47
2022-03-29 05:13:00,,0812.9,4.99,0.00,29.7,28.8,00.0,38.7,31.4,06.4,0000.0,0009.84,0002.64,0001.47
2022-03-29 05:14:00,,0812.9,5.00,0.00,29.7,28.9,00.0,38.7,31.4,06.4,0000.0,0010.92,0002.66,0001.47
2022-03-29 05:15:00,,0813.0,5.00,0.00,29.7,28.9,00.0,38.7,31.4,06.4,0000.0,0010.38,0002.72,0001.47
2022-03-29 05:16:00,,0813.0,5.00,0.00,29.7,28.9,00.0,38.7,31.4,06.4,0000.0,0009.99,0002.69,0001.48
2022-03-29 05:17:00,,0812.9,5.01,0.00,29.8,28.9,00.0,38.7,31.5,06.5,0000.0,0009.44,0002.73,0001.49
2022-03-29 05:18:00,,0812.9,4.99,0.00,29.7,28.9,00.0,38.7,31.5,06.5,0000.0,0008.78,0002.78,0001.50
2022-03-29 05:19:00,,0813.0,4.99,0.00,29.7,28.9,00.0,38.7,31.5,06.4,0000.0,0008.90,0002.77,0001.51
2022-03-29 05:20:00,,0813.1,5.01,0.00,29.8,28.9,00.0,38.7,31.5,06.3,0000.0,0008.78,0002.78,0001.51
2022-03-29 05:21:00,,0813.0,4.99,0.00,29.8,28.9,00.0,38.7,31.5,06.3,0000.0,0008.95,0002.72,0001.51
2022-03-29 05:22:00,,0812.9,5.01,0.00,29.8,28.9,00.0,38.7,31.5,06.4,0000.0,0009.65,0002.71,0001.50
2022-03-29 05:23:00,,0813.0,4.99,0.00,29.8,28.9,00.0,38.7,31.5,06.4,0000.0,0010.32,0002.77,0001.48
2022-03-29 05:24:00,,0812.9,4.99,0.00,29.8,28.9,00.0,38.7,31.5,06.4,0000.0,0010.60,0002.78,0001.48
2022-03-29 05:25:00,,0813.1,5.02,0.00,29.8,28.9,00.0,38.7,31.5,06.3,0000.0,0009.85,0002.80,0001.50
2022-03-29 05:26:00,,0813.1,4.98,0.00,29.8,28.9,00.0,38.7,31.5,06.3,0000.0,0009.63,0002.80,0001.50
2022-03-29 05:27:00,,0812.9,5.02,0.00,29.8,28.9,00.0,38.8,31.5,06.3,0000.0,0009.64,0002.84,0001.51
2022-03-29 05:28:00,,0813.0,4.98,0.00,29.8,28.9,00.0,38.8,31.5,06.3,0000.0,0009.68,0002.84,0001.49
2022-03-29 05:29:00,,0812.9,4.99,0.00,29.8,28.9,00.0,38.8,31.5,06.3,0000.0,0009.75,0002.86,0001.49
2022-03-29 05:30:00,,0812.9,5.02,0.00,29.8,28.9,00.0,38.8,31.5,06.3,0000.0,0009.27,0002.83,0001.48
2022-03-29 05:31:00,,0812.8,4.98,0.00,29.8,28.9,00.0,38.8,31.6,06.3,0000.0,0009.05,0002.82,0001.47
2022-03-29 05:32:00,,0812.8,5.02,0.00,29.8,28.9,00.0,38.8,31.6,06.3,0000.0,0008.56,0002.84,0001.45
2022-03-29 05:33:00,,0812.8,5.00,0.00,29.8,28.9,00.0,38.8,31.5,06.2,0000.0,0007.86,0002.83,0001.46
2022-03-29 05:34:00,,0812.8,4.99,0.00,29.8,29.0,00.0,38.8,31.5,06.3,0000.0,0007.31,0002.77,0001.46
2022-03-29 05:35:00,,0812.8,5.01,0.00,29.9,29.0,00.0,38.8,31.5,06.3,0000.0,0007.55,0002.74,0001.46
2022-03-29 05:36:00,,0812.8,4.99,0.00,29.9,29.0,00.0,38.8,31.6,06.3,0000.0,0007.90,0002.74,0001.45
2022-03-29 05:37:00,,0812.8,5.02,0.00,29.9,29.0,00.0,38.8,31.6,06.3,0000.0,0007.74,0002.69,0001.44
2022-03-29 05:38:00,,0812.8,4.99,0.00,29.9,29.0,00.0,38.8,31.6,06.3,0000.0,0007.76,0002.70,0001.45
2022-03-29 05:39:00,,0812.7,5.00,0.00,29.9,29.0,00.0,38.8,31.6,06.2,0000.0,0007.63,0002.67,0001.46
2022-03-29 05:40:00,,0812.7,5.01,0.00,29.9,29.0,00.0,38.8,31.6,06.1,0000.0,0007.52,0002.61,0001.47
2022-03-29 05:41:00,,0812.7,5.00,0.00,29.9,29.0,00.0,38.8,31.6,06.2,0000.0,0008.00,0002.64,0001.49
2022-03-29 05:42:00,,0812.7,4.99,0.00,29.9,29.0,00.0,38.8,31.6,06.3,0000.0,0007.99,0002.59,0001.50
2022-03-29 05:43:00,,0812.8,5.01,0.00,29.9,29.0,00.0,38.8,31.6,06.3,0000.0,0007.91,0002.61,0001.53
2022-03-29 05:44:00,,0812.6,4.99,0.00,29.9,29.0,00.0,38.8,31.6,06.1,0000.0,0008.22,0002.62,0001.53
2022-03-29 05:45:00,,0812.7,4.99,0.00,29.9,29.0,00.0,38.8,31.6,06.1,0000.0,0008.18,0002.63,0001.54
2022-03-29 05:46:00,,0812.7,5.01,0.00,29.9,29.0,00.0,38.8,31.6,06.2,0000.0,0007.60,0002.62,0001.55
2022-03-29 05:47:00,,0812.6,4.98,0.00,29.9,29.0,00.0,38.9,31.6,06.2,0000.0,0007.17,0002.65,0001.56
2022-03-29 05:48:00,,0812.6,5.01,0.00,29.9,29.0,00.0,38.9,31.6,06.0,0000.0,0007.32,0002.73,0001.58
2022-03-29 05:49:00,,0812.6,4.99,0.00,29.9,29.0,00.0,38.9,31.6,06.2,0000.0,0007.26,0002.73,0001.59
2022-03-29 05:50:00,,0812.6,4.99,0.00,29.9,29.0,00.0,38.9,31.6,06.1,0000.0,0007.24,0002.72,0001.59
2022-03-29 05:51:00,,0812.6,5.01,0.00,29.9,29.0,00.0,38.9,31.6,06.1,0000.0,0007.29,0002.76,0001.60
2022-03-29 05:52:00,,0812.6,5.00,0.00,29.9,29.0,00.0,38.9,31.6,06.2,0000.0,0007.44,0002.78,0001.59
2022-03-29 05:53:00,,0812.6,4.99,0.00,29.9,29.0,00.0,38.9,31.7,06.1,0000.0,0007.45,0002.80,0001.58
2022-03-29 05:54:00,,0812.6,5.01,0.00,29.9,29.0,00.0,38.9,31.7,06.2,0000.0,0007.50,0002.79,0001.58
2022-03-29 05:55:00,,0812.7,4.99,0.00,29.9,29.0,00.0,38.9,31.7,06.1,0000.0,0006.79,0002.83,0001.59
2022-03-29 05:56:00,,0812.6,5.02,0.00,29.9,29.0,00.0,38.9,31.6,06.1,0000.0,0006.70,0002.82,0001.61
2022-03-29 05:57:00,,0812.6,4.99,0.00,29.9,29.0,00.0,38.9,31.7,06.2,0000.0,0006.66,0002.80,0001.61
2022-03-29 05:58:00,,0812.6,5.00,0.00,29.9,29.0,00.0,38.9,31.7,06.2,0000.0,0006.72,0002.76,0001.60
2022-03-29 05:59:00,,0812.6,5.01,0.00,29.9,29.0,00.0,38.9,31.7,06.4,0000.0,0006.89,0002.75,0001.60
